www.pogodaiklimat.ru

Погода и климат >> Архив погоды >> Мексика >> Chetumal


ПОГОДА в Chetumal

  • Прогноз погоды в Chetumal
  • Монитор погоды в Chetumal
  • Климат города

АРХИВ ПОГОДЫ в Chetumal

Время (UTC), дата Ветер
(напр.,м/с)
 
Видим.   Явления Облачность Т
(С)
Тd
(С)
f
(%)
Тe
(С)
Тes
(С)
Комфортность P
(гПа)
Po
(гПа)
Тmin
(С)
Tmax
(С)
R
(мм)
R24
(мм)
S
(см)
18 12.09 СЗ 2 10 км 9/8 600 м
[Sc diur, vesp Ci fib]
+34.0 +25.3 61 +48 +52 опасность
перегрева
1011.4 1010.4 +22.8 +35.0
21 12.09 Ю 2 10 км слабая морось 9/6 600 м
[Sc diur, vesp As op]
+33.3 +27.1 70 +52 +53 опасность
перегрева
1009.6 1008.6 0.2
00 13.09 С 2 10 км {морось} 9/6 600 м
[Sc diur, vesp Ac trans]
+27.4 +25.7 90 +40 +40 очень
душно
1010.3 1009.3 0.3
03 13.09 СЗ 1 8000 м 8/5 600 м
[Sc diur, vesp Ac trans]
+26.4 +25.3 94 +38 +38 очень
душно
1012.5 1011.5
06 13.09 СЗ 1 8000 м 3/1 600 м
[Sc diur, vesp Ac trans]
+25.1 +24.5 96 +35 +35 очень
душно
1012.3 1011.3 +22.8 +36.2
09 13.09 З 1 8000 м 3/1 600 м
[Sc diur, vesp Ac trans]
+24.1 +23.8 98 +33 +33 очень
душно
1011.7 1010.7
12 13.09 СЗ 1 10 км 8/1 600 м
[Frnb Cs]
+23.6 +23.5 99 +32 +32 очень
душно
1011.9 1010.9 +21.9 +36.2
15 13.09 З 2 10 км 8/1 600 м
[Sc diur, vesp Cs]
+28.4 +24.8 81 +41 +49 опасность
перегрева
1013.4 1012.4
18 13.09 ЮВ 2 10 км 4/4 600 м
[Sc diur, vesp]
+32.4 +26.0 69 +48 +60 опасность
перегрева
1012.5 1011.5 +21.9 +34.4
21 13.09 В 3 10 км 5/3 600 м
[Sc diur, vesp Ac trans]
+34.8 +27.7 67 +55 +60 опасность
перегрева
1010.3 1009.3
00 14.09 В 3 10 км 1/1 600 м
[Sc diur, vesp]
+31.4 +26.4 75 +48 +48 опасность
перегрева
1010.6 1009.6 +21.9 +36.1
03 14.09 В 3 8000 м 1/1 600 м
[Sc diur, vesp]
+29.6 +25.9 81 +44 +44 опасность
перегрева
1012.5 1011.5
06 14.09 В 3 8000 м 9/9 600 м
[Sc diur, vesp]
+29.6 +26.5 83 +45 +45 опасность
перегрева
1012.5 1011.5 +21.9 +36.1
09 14.09 В 2 8000 м {дождь} 8/8 600 м
[Sc diur, vesp]
+27.2 +25.6 91 +40 +40 очень
душно
1010.9 1009.9 4
12 14.09 СЗ 1 10 км 6/6 600 м
[Sc diur, vesp]
+26.0 +25.6 98 +38 +38 очень
душно
1011.9 1010.9 4
15 14.09 Ю 1 10 км {гроза} 9/3 600 м
[Frnb Cs]
+28.8 +26.9 89 +45 +52 опасность
перегрева
1013.5 1012.5
18 14.09 ЮВ 4 10 км 8/5 600 м
[Sc diur, vesp Cs]
+32.8 +26.7 70 +50 +56 опасность
перегрева
1012.4 1011.4 +24.0 +33.2
21 14.09 В 3 10 км 10/5 600 м
[Sc diur, vesp Cs]
+33.0 +28.7 78 +55 +59 опасность
перегрева
1010.3 1009.3
00 15.09 В 3 10 км 5/3 600 м
[Sc diur, vesp Cs]
+30.8 +27.9 85 +51 +51 опасность
перегрева
1009.9 1008.9 +24.0 +34.0
03 15.09 В 3 8000 м 1/1 600 м
[Sc diur, vesp]
+29.4 +26.5 84 +45 +45 опасность
перегрева
1012.0 1011.0
06 15.09 В 2 8000 м 1/1 600 м
[Cu hum]
+28.9 +26.7 88 +45 +45 опасность
перегрева
1012.3 1011.3 +24.0 +34.0
12 15.09 ЮВ 2 10 км осадки на расстоянии 9/8 600 м
[Frnb Ci fib]
+28.8 +26.9 89 +45 +45 опасность
перегрева
1012.2 1011.2 +26.8 +34.0
15 15.09 В 5 10 км 9/4 600 м
[Sc diur, vesp Cs]
+32.6 +27.1 73 +51 +54 опасность
перегрева
1013.1 1012.1
18 15.09 В 5 10 км 9/3 600 м
[Cu med, cong Cs]
+34.0 +28.7 74 +57 +63 опасность
перегрева
1011.7 1010.7 +26.8 +34.3
21 15.09 В 4 10 км 5/1 600 м
[Cu med, cong Ci fib]
+32.9 +27.9 75 +53 +58 опасность
перегрева
1010.0 1009.0
00 16.09 В 2 10 км 5/1 600 м
[Cu med, cong Ci fib]
+30.8 +27.4 82 +49 +49 опасность
перегрева
1010.5 1009.5 +26.8 +34.3
03 16.09 В 3 8000 м 3/3 600 м
[Sc diur, vesp]
+29.7 +26.1 81 +45 +45 опасность
перегрева
1012.6 1011.6
06 16.09 В 2 8000 м 1/1 600 м
[Cu med, cong]
+28.5 +26.1 87 +43 +43 опасность
перегрева
1012.6 1011.6 +26.8 +34.3
12 16.09 В 2 10 км 4/3 600 м
[Cu hum Ci fib]
+27.9 +25.9 89 +42 +42 опасность
перегрева
1012.3 1011.3 +26.0 +34.3
15 16.09 В 4 10 км 5/5 600 м
[Cu med, cong]
+32.9 +27.4 73 +52 +56 опасность
перегрева
1013.9 1012.9
18 16.09 В 3 10 км {морось} 3/3 600 м
[Cu med, cong]
+34.2 +28.5 72 +56 +68 опасность
перегрева
1012.8 1011.8 0.3
21 16.09 В 4 10 км 1/1 600 м
[Cu hum]
+35.2 +28.7 69 +58 +63 опасность
перегрева
1010.4 1009.4
00 17.09 В 3 10 км 4/4 600 м
[Sc diur, vesp]
+31.8 +27.4 78 +51 +51 опасность
перегрева
1010.8 1009.8 +26.0 +35.7
03 17.09 В 3 8000 м 1/1 600 м
[Cu med, cong]
+29.7 +26.9 85 +47 +47 опасность
перегрева
1012.8 1011.8
06 17.09 В 2 8000 м 3/3 600 м
[Sc diur, vesp]
+29.2 +27.0 88 +46 +46 опасность
перегрева
1012.7 1011.7 +26.0 +35.7
09 17.09 В 2 8000 м 3/3 600 м
[Sc diur, vesp]
+28.5 +26.3 88 +43 +43 опасность
перегрева
1011.3 1010.3
12 17.09 С 1 10 км 3/3 600 м
[Sc diur, vesp]
+26.7 +25.7 94 +39 +39 очень
душно
1012.4 1011.4 +24.9 +35.7
15 17.09 В 1 10 км 6/5 600 м
[Sc diur, vesp Ci fib]
+32.8 +27.0 72 +51 +57 опасность
перегрева
1013.9 1012.9
18 17.09 В 4 10 км морось 9/8 600 м
[Frnb Ci fib]
+31.0 +28.6 87 +53 +55 опасность
перегрева
1013.6 1012.6 0.6
21 17.09 В 3 10 км {дождь} 6/3 600 м
[Cu med, cong Ci fib]
+34.5 +27.4 67 +54 +59 опасность
перегрева
1010.5 1009.4 0.9
00 18.09 СВ 1 10 км 9/5 600 м
[Sc diur, vesp Ci fib]
+30.5 +27.2 83 +49 +49 опасность
перегрева
1011.2 1010.2 0.9
03 18.09 В 3 8000 м 5/5 600 м
[Sc diur, vesp]
+29.4 +26.8 86 +46 +46 опасность
перегрева
1012.7 1011.7
06 18.09 В 3 8000 м 1/1 600 м
[Cu hum]
+28.8 +25.8 84 +43 +43 опасность
перегрева
1012.0 1011.0 +24.9 +36.3
09 18.09 В 2 8000 м 1/1 600 м
[Cu med, cong]
+28.0 +25.7 87 +41 +41 опасность
перегрева
1011.1 1010.1
12 18.09 СЗ 1 10 км 3/3 600 м
[Sc diur, vesp]
+26.1 +25.4 96 +38 +38 очень
душно
1011.9 1010.9 +24.1 +36.3
15 18.09 СЗ 2 10 км слабая морось {гроза, дождь} 9/6 600 м
[Frnb Cs]
+28.8 +26.9 89 +45 +49 опасность
перегрева
1013.6 1012.6 5
18 18.09 СВ 1 10 км слабый дождь {гроза} 9/8 600 м
[Frnb Ac trans]
+27.8 +26.7 94 +43 +46 опасность
перегрева
1012.7 1011.7 8
21 18.09 Ю 1 10 км {гроза, морось} 9/5 600 м
[Sc Ac trans Cs]
+28.6 +26.8 90 +45 +48 опасность
перегрева
1010.1 1009.1 0.4
00 19.09 В 3 10 км 8/3 600 м
[Sc diur, vesp Ac trans Cs]
+28.7 +25.7 84 +43 +43 опасность
перегрева
1010.6 1009.6 0.4
03 19.09 В 2 8000 м 1/1 600 м
[Sc diur, vesp]
+27.9 +25.9 89 +42 +42 опасность
перегрева
1012.5 1011.5
06 19.09 В 4 8000 м 5/5 600 м
[Sc diur, vesp]
+28.2 +25.7 86 +42 +42 опасность
перегрева
1012.2 1011.2 +24.1 +33.2
09 19.09 С 1 8000 м 3/3 600 м
[Sc diur, vesp]
+25.4 +24.7 96 +36 +36 очень
душно
1011.4 1010.4 0.2
12 19.09 СЗ 1 10 км 1/1 600 м
[Sc diur, vesp]
+24.8 +24.7 99 +35 +35 очень
душно
1012.1 1011.1 1

 

Местоположение метеостанции Chetumal (Мексика): широта 18.48 долгота -88.30 высота над уровнем моря 7 м.

В архиве по умолчанию представлена погода в Chetumal за последнюю неделю. Архивные данные за месяц целиком и за предыдущие месяцы, начиная с января 2011 года, Вы можете получить, выбрав интересующий диапазон дат из раскрывающегося списка и нажав кнопку "Ввод!".

Внимание! Время в таблицах - всемирное. Для получения местного времени необходимо прибавить поправку, которая в Chetumal равна -6 ч.

Смотрите также архив погоды в соседних городах и на ближайших метеорологических станциях:

Погода в Belize (Белиз) (106 км)
Погода в Felipe Carrillo Pue (Мексика) (142 км)
Погода в Flores (Гватемала) (241 км)
Погода в Valladolid (Мексика) (245 км)
Погода в Campeche (Мексика) (281 км)
Погода в Roatan (Гондурас) (306 км)
Погода в Puerto Barrios (Гватемала) (309 км)
Погода в Merida (Мексика) (312 км)
Погода в Merida 2 (Мексика) (316 км)
Погода в Tela (Гондурас) (319 км)

Пояснения к столбцам:

Ветер - указаны скорость ветра в м/с - средняя за 10 мин, порывы в срок и между сроками (в фигурных скобках) и направление, откуда дует ветер: С - северный, СВ - северо-восточный, В - восточный, ЮВ - юго-восточный, Ю - южный, ЮЗ - юго-западный, З - западный, СЗ - северо-западный.
Видимость - горизонтальная дальность видимости в метрах или километрах. При видимости от 1 до 10 км при отсутствии осадков обычно наблюдается дымка, при ухудшении видимости до 1 км и менее - туман. В сухую погоду видимость может ухудшаться дымом, пылью или мглою.
Явления - указаны атмосферные явления, наблюдавшиеся в срок или в последний час перед сроком; фигурными скобками обозначены явления, наблюдавшиеся между сроками (за 1-3 часа до срока); квадратными скобками обозначены град или гололедные отложения с указанием их диаметра в мм.
Облачность - указаны через наклонную черту общая и нижняя облачность в баллах и высота нижней границы облаков в метрах; квадратными скобками обозначены формы облаков: Ci - перистые, Cs - перисто-слоистые, Cc - перисто-кучевые, Ac - высококучевые, As - высокослоистые, Sc - слоисто-кучевые, Ns - слоисто-дождевые, Cu - кучевые, Cb - кучево-дождевые. Подробнее классификацию облаков см. в Атласе облаков (PDF).
T - Температура воздуха - температура, измеренная на высоте 2 м над землей.
Td - Температура точки росы - температура, при понижении до которой содержащийся в воздухе водяной пар достигнет насыщения.
f - Относительная влажность воздуха - влажноcть воздуха, измеренная на высоте 2 м над землей.
Te - Эффективная температура - температура, которую ощущает одетый по сезону человек в тени. Характеристика душности погоды. При расчете учитывается влияние влажности воздуха и скорости ветра на теплоощущения человека.
Tes - Эффективная температура на солнце - температура, которую ощущает человек, с поправкой на солнечный нагрев. Характеристика знойности погоды. Зависит от высоты солнца над горизонтом, облачности и скорости ветра. Ночью, в пасмурную погоду, а также при ветре 12 м/с и более поправка равна нулю.
P - Атмосферное давление - приведенное к уровню моря атмосферное давление.
Po - Атмосферное давление - измеренное на уровне метеостанции атмосферное давление.
Tmin - Минимальная температура - минимум температуры воздуха на высоте 2 м над землей.
Tmax - Максимальная температура - максимум температуры воздуха на высоте 2 м над землей.
R - Количество осадков - Количество выпавших осадков за период времени, мм. При наведении курсора мыши на число - период времени, за который выпало указанное количество осадков.
R24 - Количество осадков - Количество выпавших осадков за 24 часа, мм.
S - Снежный покров - Высота снежного покрова, см. При наведении курсора мыши на число - состояние снежного покрова и степень покрытия местности в баллах.